www.pogodaiklimat.ru

Погода и климат >> Архив погоды >> Россия >> Чукотка >> Эгвекинот


ПОГОДА в Эгвекиноте

  • Прогноз погоды в Эгвекиноте
  • Монитор погоды в Эгвекиноте
  • Климат города

АРХИВ ПОГОДЫ в Эгвекиноте

Время (UTC), дата Ветер
(напр.,м/с)
 
Видим.   Явления Облачность Т
(С)
Тd
(С)
f
(%)
Тe
(С)
Тes
(С)
Комфортность P
(гПа)
Po
(гПа)
Тmin
(С)
Tmax
(С)
R
(мм)
R24
(мм)
S
(см)
06 17.08 СВ 6
{11}
20 км 10/8 1320 м
[Cb cap Ac und]
+10.1 +2.5 59 +7 +7 998.3 995.6 +12.9 0.1
09 17.08 С 3
{10}
20 км 10/8 1380 м
[Cb cap Ac und]
+8.9 +1.0 58 +7 +7 1001.0 998.3
12 17.08 Ю 7-10
{10}
20 км 10/8 1470 м
[Cb cap Ac und]
+6.9 +1.8 70 +2 +2 1003.6 1000.8
15 17.08 Ю 4
{10}
10 км 10/9 750 м
[Cb cap Ac und]
+5.9 +3.1 82 +2 +2 1005.1 1002.3
18 17.08 Ю 2
{5}
10 км 10/4 600 м
[Cb cap Cs]
+6.6 +3.6 81 +4 +5 1005.8 1003.0 +5.8
21 17.08 Ю 2
{3}
10 км 10/8 300 м
[St Ac und]
+7.5 +3.9 78 +6 +6 1006.6 1003.8 +5.8
00 18.08 Ю 5
{6}
10 км 10/8 600 м
[St Ac und]
+8.9 +4.3 73 +6 +6 1006.1 1003.4
03 18.08 Ю 5
{8}
10 км 10/10 1000 м
[Cb cap]
+8.5 +6.3 86 +5 +5 1006.2 1003.5
06 18.08 Ю 5
{7}
10 км {ливн. осадки} 4/4 600 м
[Cb cap]
+8.3 +6.9 91 +5 +5 1006.1 1003.4 +9.1 0.0
09 18.08 Ю 4
{7}
10 км 10/10 800 м
[Cb cap]
+8.3 +6.9 91 +5 +5 1006.5 1003.8
12 18.08 СЗ 1
{5}
10 км 10/8 500 м
[Cb cap Ac und]
+7.1 +5.4 89 +6 +6 1006.5 1003.8
15 18.08 С 3
{5}
20 км 3/3 1000 м
[Cb cap]
+5.0 +1.5 78 +2 +2 1006.9 1004.2
18 18.08 С 5
{8}
20 км ясно +8.3 +1.2 61 +5 +6 1007.7 1005.0 +3.6
21 18.08 СЗ 5
{8}
20 км 3/3 1000 м
[Sc]
+10.7 -2.7 39 +8 +10 1008.5 1005.8 +3.6
00 19.08 С 4
{10}
20 км 6/6 1000 м
[Sc]
+12.9 -3.5 32 +12 +14 1009.0 1006.3
03 19.08 Ю 5
{8}
20 км 8/8 1500 м
[Cb cap]
+10.5 +2.4 57 +8 +8 1009.4 1006.7
06 19.08 ЮВ 2
{7}
20 км 10/5 1000 м
[Sc Ac und]
+10.1 +0.7 52 +9 +9 1010.7 1008.0 +13.3
09 19.08 С 2
{6}
20 км 10/5 1000 м
[Cb cap Ac und]
+8.5 -1.3 50 +7 +7 1013.2 1010.5
12 19.08 Ю 3
{6}
20 км 10/8 930 м
[Cb cap Ac und]
+6.8 +1.3 68 +4 +4 1015.0 1012.2
15 19.08 З 1
{8}
20 км ясно +3.9 +1.0 81 +3 +3 1016.1 1013.3
18 19.08 С 1
{4}
20 км ясно +4.4 +1.3 80 +3 +4 1017.0 1014.2 +0.5
21 19.08 штиль 0
{5}
50 км ?/? +8.3 +2.9 69 +8 +8 1016.5 1013.7 +0.5
00 20.08 Ю 6
{8}
20 км 8/5 1000 м
[Sc Ci sp]
+10.3 +5.2 71 +7 +8 1015.8 1013.0
03 20.08 Ю 7
{10}
20 км 8/3 1000 м
[Sc Ci fib]
+10.8 +6.8 76 +7 +8 1014.5 1011.8
06 20.08 Ю 4
{9}
20 км 8/0
[Ci]
+11.2 +4.8 65 +9 +9 1013.3 1010.6 +11.7
09 20.08 штиль 0
{7}
20 км 10/0
[Ac trans Ci sp]
+9.3 +6.9 85 +9 +9 1013.2 1010.5
12 20.08 Ю 3
{7}
20 км 10/0
[Ci fib]
+8.1 +5.7 85 +5 +5 1013.0 1010.3
15 20.08 Ю 4
{7}
20 км 10/5 1000 м
[Sc Ac und]
+8.6 +6.6 87 +5 +5 1012.0 1009.3
18 20.08 В 1
{6}
10 км 10/8 840 м
[Cb cap Ac und]
+8.8 +6.7 87 +8 +8 1010.8 1008.1 +7.5
21 20.08 ЮЗ 4
{6}
1000 м слабый ливневой дождь 10/8 300 м
[Cb cap As op]
+9.6 +8.3 92 +7 +7 1009.4 1006.7 +7.5
00 21.08 Ю 3
{6}
4000 м слабый ливневой дождь 10/8 300 м
[Cb cap As op]
+9.3 +8.9 97 +7 +7 1008.2 1005.5
03 21.08 ЮЗ 3
{5}
4000 м туман на расстоянии {ливн. осадки} 10/10 720 м
[Cb cap]
+10.9 +10.0 94 +9 +9 1007.4 1004.7
06 21.08 ЮЗ 1
{4}
10 км {ливн. осадки} 10/8 700 м
[Sc Ac und]
+10.6 +9.7 94 +10 +10 1006.9 1004.2 +11.9 4
09 21.08 В 1
{2}
10 км 10/5 600 м
[Sc Ac trans Ci sp]
+9.2 +8.6 96 +8 +8 1007.1 1004.4
12 21.08 СЗ 1
{4}
20 км 10/3 1000 м
[Sc Ac trans Ci sp]
+8.2 +7.6 96 +7 +7 1007.3 1004.6
15 21.08 С 2
{4}
10 км {ливн. осадки} 10/6 1500 м
[Cb cap Ci sp]
+9.6 +7.4 86 +8 +8 1007.7 1005.0
18 21.08 СЗ 1
{7}
10 км {ливн. осадки} 10/8 1320 м
[Cb cap Ac trans Ci sp]
+9.5 +8.1 91 +9 +9 1008.9 1006.2 +7.3 0.0
21 21.08 Ю 4
{5}
20 км 8/3 600 м
[Cu Sc Ac trans Ci fib]
+11.5 +8.7 83 +9 +11 1009.8 1007.1 +7.3
00 22.08 Ю 3
{6}
10 км слабый ливневой дождь 8/6 600 м
[Cb cap Ac trans]
+11.4 +9.5 88 +10 +11 1010.7 1008.0
03 22.08 Ю 4
{7}
20 км в посл. час ливневой дождь 5/5 600 м
[Cb cap]
+12.9 +9.5 80 +11 +13 1010.7 1008.0
06 22.08 З 1
{5}
10 км в посл. час ливневой дождь 5/5 600 м
[Cb cap Ac trans]
+12.1 +9.5 84 +12 +12 1011.7 1009.0 +14.0 3
09 22.08 С 5
{8}
2000 м ливневой дождь 10/10 600 м
[Cb cap]
+9.4 +7.6 89 +6 +6 1013.6 1010.9
12 22.08 С 2
{9}
4000 м слабый ливневой дождь 10/10 600 м
[Cb cap]
+8.2 +7.0 92 +6 +6 1014.6 1011.9
15 22.08 штиль 0
{8}
4000 м туман на расстоянии {ливн. осадки} 10/10 600 м
[Cb cap]
+7.9 +6.8 93 +7 +7 1014.6 1011.9
18 22.08 Ю 5
{8}
10 км {ливн. осадки} 10/10 600 м
[Cb cap]
+7.0 +5.1 88 +3 +3 1014.3 1011.6 +7.0 6
21 22.08 Ю 3
{8}
10 км в посл. час ливневой дождь 10/9 450 м
[Cb cap Ac und]
+7.9 +5.9 87 +5 +5 1014.1 1011.4 +6.9
00 23.08 Ю 4
{6}
2000 м слабый ливневой дождь 10/9 300 м
[Cb cap Ac und]
+8.3 +7.0 92 +5 +5 1013.5 1010.8
03 23.08 Ю 3
{5}
4000 м слабый ливневой дождь 10/9 300 м
[Cb cap Ac und]
+8.3 +7.2 93 +6 +6 1012.4 1009.7
06 23.08 Ю 3
{4}
10 км {ливн. осадки} 10/10 600 м
[Cb cap]
+8.4 +7.1 92 +6 +6 1011.7 1009.0 +8.8 0.7
09 23.08 С 2
{4}
4000 м туман на расстоянии 10/10 930 м
[Cb cap]
+8.1 +6.9 92 +6 +6 1011.6 1008.9
12 23.08 СВ 1
{3}
10 км 10/10 700 м
[Cb cap]
+7.6 +6.4 92 +7 +7 1011.2 1008.5
15 23.08 Ю 3
{3}
4000 м слабый ливневой дождь 10/10 300 м
[Cb cap]
+7.5 +6.8 95 +4 +4 1010.3 1007.6
18 23.08 Ю 3
{4}
4000 м слабый ливневой дождь 10/10 300 м
[Cb cap]
+7.5 +6.6 94 +4 +4 1010.0 1007.3 +7.3 3
21 23.08 Ю 3
{4}
10 км слабый дождь {ливн. осадки} 10/8 300 м
[Frnb As op]
+8.1 +7.2 94 +5 +5 1009.8 1007.1 +7.3
00 24.08 Ю 4
{5}
4000 м туман на расстоянии {ливн. осадки, дождь} 10/8 750 м
[St As op]
+8.6 +7.7 94 +5 +6 1009.6 1006.9
03 24.08 Ю 3
{5}
10 км 10/8 300 м
[St Ac und]
+9.5 +7.8 89 +7 +7 1009.7 1007.0

 

Местоположение метеостанции Эгвекинот (Чукотка, Россия): широта 66.35 долгота -179.00 высота над уровнем моря 22 м.

В архиве по умолчанию представлена погода в Эгвекиноте за последнюю неделю. Архивные данные за месяц целиком и за предыдущие месяцы, начиная с января 2011 года, Вы можете получить, выбрав интересующий диапазон дат из раскрывающегося списка и нажав кнопку "Ввод!".

Внимание! Время в таблицах - всемирное. Для получения местного времени необходимо прибавить поправку, которая в Эгвекиноте равна 12 ч.

Смотрите также архив погоды в соседних городах и на ближайших метеорологических станциях:

Погода на Мысе Ванкарем (Чукотка, Россия) (239 км)
Погода в Уэлене (Чукотка, Россия) (448 км)
Погода на Острове Врангеля (Чукотка, Россия) (517 км)

Пояснения к столбцам:

Ветер - указаны скорость ветра в м/с - средняя за 10 мин, порывы в срок и между сроками (в фигурных скобках) и направление, откуда дует ветер: С - северный, СВ - северо-восточный, В - восточный, ЮВ - юго-восточный, Ю - южный, ЮЗ - юго-западный, З - западный, СЗ - северо-западный.
Видимость - горизонтальная дальность видимости в метрах или километрах. При видимости от 1 до 10 км при отсутствии осадков обычно наблюдается дымка, при ухудшении видимости до 1 км и менее - туман. В сухую погоду видимость может ухудшаться дымом, пылью или мглою.
Явления - указаны атмосферные явления, наблюдавшиеся в срок или в последний час перед сроком; фигурными скобками обозначены явления, наблюдавшиеся между сроками (за 1-3 часа до срока); квадратными скобками обозначены град или гололедные отложения с указанием их диаметра в мм.
Облачность - указаны через наклонную черту общая и нижняя облачность в баллах и высота нижней границы облаков в метрах; квадратными скобками обозначены формы облаков: Ci - перистые, Cs - перисто-слоистые, Cc - перисто-кучевые, Ac - высококучевые, As - высокослоистые, Sc - слоисто-кучевые, Ns - слоисто-дождевые, Cu - кучевые, Cb - кучево-дождевые. Подробнее классификацию облаков см. в Атласе облаков (PDF).
T - Температура воздуха - температура, измеренная на высоте 2 м над землей.
Td - Температура точки росы - температура, при понижении до которой содержащийся в воздухе водяной пар достигнет насыщения.
f - Относительная влажность воздуха - влажноcть воздуха, измеренная на высоте 2 м над землей.
Te - Эффективная температура - температура, которую ощущает одетый по сезону человек в тени. Характеристика душности погоды. При расчете учитывается влияние влажности воздуха и скорости ветра на теплоощущения человека.
Tes - Эффективная температура на солнце - температура, которую ощущает человек, с поправкой на солнечный нагрев. Характеристика знойности погоды. Зависит от высоты солнца над горизонтом, облачности и скорости ветра. Ночью, в пасмурную погоду, а также при ветре 12 м/с и более поправка равна нулю.
P - Атмосферное давление - приведенное к уровню моря атмосферное давление.
Po - Атмосферное давление - измеренное на уровне метеостанции атмосферное давление.
Tmin - Минимальная температура - минимум температуры воздуха на высоте 2 м над землей.
Tmax - Максимальная температура - максимум температуры воздуха на высоте 2 м над землей.
R - Количество осадков - Количество выпавших осадков за период времени, мм. При наведении курсора мыши на число - период времени, за который выпало указанное количество осадков.
R24 - Количество осадков - Количество выпавших осадков за 24 часа, мм.
S - Снежный покров - Высота снежного покрова, см. При наведении курсора мыши на число - состояние снежного покрова и степень покрытия местности в баллах.